Flag for Trinidad and Tobago Weather past 2 weeks in San Fernando, Trinidad and Tobago

79 °F

Scattered showers. Passing clouds.

Feels Like: 82 °F
Forecast: 77 / 86 °F
Wind: 6 mph from Southeast

Location: Piarco International Airport - Trinidad

Current Time: Nov 26, 2015 at 11:47:05 PM

Latest Report: Nov 26, 2015 at 11:00 PM

Visibility: N/A

Pressure: 29.89 "Hg

Humidity: 89%

Dew point: 75 °F

Location of San FernandoLocation

Historic Weather in San Fernando — Graph


San Fernando temperature yesterday

Maximum temperature yesterday: 90 °F (at 12:00 PM)
Minimum temperature yesterday: 75 °F (at 12:00 AM)
Average temperature yesterday: 80 °F

Past Weeks' High & Low Weather Summary

High91 °F (Nov 13, 1:00 PM)100% (Nov 11, 10:00 PM)29.98 "Hg (Nov 11, 10:00 PM)
Low72 °F (Nov 21, 5:00 AM)55% (Nov 13, 3:00 PM)29.74 "Hg (Nov 20, 3:00 PM)
Average80 °F85%29.86 "Hg
* Reported Nov 11 10:00 PM — Nov 26 10:00 PM, San Fernando, Weather by CustomWeather, © 2015

Note: Actual official high and low records may vary slightly from our data, if they occured in-between our weather recording intervals... More about our weather records


San Fernando weather history for previous 24 hours

Time TempWeatherWind HumidityBarometerVisibility
10:00 PM
Thu, Nov 26
77 °FPassing clouds.10 mph94%29.89 "HgN/A
9:00 PM79 °FPassing clouds.10 mph89%29.89 "HgN/A
8:00 PM79 °FPassing clouds.10 mph89%29.86 "HgN/A
7:00 PM79 °FPassing clouds.9 mph89%29.86 "HgN/A
6:00 PM81 °FPassing clouds.10 mph84%29.83 "HgN/A
5:00 PM81 °FScattered clouds.12 mph79%29.83 "HgN/A
4:00 PM86 °FScattered clouds.14 mph70%29.83 "HgN/A
3:00 PM90 °FScattered clouds.18 mph63%29.83 "HgN/A
2:00 PM90 °FScattered clouds.18 mph63%29.86 "HgN/A
1:00 PM90 °FScattered showers. Scattered clouds.16 mph63%29.86 "HgN/A
12:00 PM90 °FScattered showers. Passing clouds.15 mph63%29.89 "HgN/A
11:00 AM88 °FScattered showers. Scattered clouds.14 mph66%29.92 "HgN/A
10:00 AM88 °FScattered showers. Passing clouds.14 mph70%29.92 "HgN/A
9:00 AM86 °FPassing clouds.13 mph70%29.92 "HgN/A
8:00 AM84 °FPassing clouds.6 mph74%29.92 "HgN/A
7:00 AM77 °FPassing clouds.No wind89%29.89 "HgN/A
6:00 AM73 °FPassing clouds.No wind100%29.86 "HgN/A
5:00 AM73 °FPassing clouds.No wind100%29.86 "HgN/A
4:00 AM73 °FPassing clouds.No wind94%29.86 "HgN/A
3:00 AM73 °FPassing clouds.No wind100%29.86 "HgN/A
2:00 AM75 °FPassing clouds.No wind100%29.86 "HgN/A
1:00 AM75 °FPassing clouds.No wind100%29.89 "HgN/A
12:00 AM77 °FPassing clouds.No wind94%29.92 "HgN/A
11:00 PM
Wed, Nov 25
77 °FPassing clouds.No wind94%29.92 "HgN/A
Weather by CustomWeather, © 2015

See weather overviewHow to use our weather pages